• In Czech Republic
  • List of Countries
  • For 7 days
  • Water Temperature
  • Satellite Maps
  • Weather Map
  • Weather Widgets
  • user-avatar
    Login

    Hourly Weather Teramo

    Today, 20 October, Saturday

    Time Temperature Precipitation Wind Pressure Humidity
    00:00 +16°C° 0 mm 2 mps 735 mmHg 83%
    01:00 +15°C° 0 mm 2 mps 735 mmHg 81%
    02:00 +15°C° 0 mm 2 mps 735 mmHg 79%
    03:00 +15°C° 0 mm 2 mps 735 mmHg 76%
    04:00 +15°C° 0 mm 2 mps 735 mmHg 74%
    05:00 +15°C° 0 mm 2 mps 736 mmHg 73%
    06:00 +15°C° 0 mm 2 mps 736 mmHg 71%
    07:00 +16°C° 0 mm 2 mps 736 mmHg 69%
    08:00 +18°C° 0 mm 2 mps 737 mmHg 63%
    09:00 +19°C° 0 mm 3 mps 737 mmHg 57%
    10:00 +21°C° 0 mm 3 mps 737 mmHg 51%
    11:00 +22°C° 0 mm 3 mps 737 mmHg 50%
    12:00 +24°C° 0 mm 3 mps 737 mmHg 49%
    13:00 +24°C° 0 mm 3 mps 737 mmHg 48%
    14:00 +22°C° 0 mm 3 mps 737 mmHg 52%
    15:00 +22°C° 0 mm 3 mps 737 mmHg 55%
    16:00 +21°C° 0 mm 3 mps 737 mmHg 59%
    17:00 +19°C° 0 mm 3 mps 737 mmHg 65%
    18:00 +18°C° 0 mm 2 mps 737 mmHg 72%
    19:00 +16°C° 0 mm 2 mps 737 mmHg 79%
    20:00 +16°C° 0 mm 2 mps 737 mmHg 79%
    21:00 +14°C° 0 mm 3 mps 737 mmHg 79%
    22:00 +14°C° 0 mm 3 mps 737 mmHg 79%
    23:00 +14°C° 0 mm 3 mps 737 mmHg 76%

    Tomorrow, 21 October, Sunday

    Time Temperature Precipitation Wind Pressure Humidity
    00:00 +14°C° 0 mm 3 mps 736 mmHg 74%
    01:00 +13°C° 0 mm 3 mps 736 mmHg 71%
    02:00 +13°C° 0 mm 3 mps 736 mmHg 69%
    03:00 +13°C° 0 mm 3 mps 736 mmHg 67%
    04:00 +13°C° 0 mm 3 mps 735 mmHg 65%
    05:00 +13°C° 0 mm 2 mps 735 mmHg 64%
    06:00 +13°C° 0 mm 2 mps 735 mmHg 63%
    07:00 +13°C° 0 mm 2 mps 735 mmHg 62%
    08:00 +15°C° 0 mm 2 mps 735 mmHg 58%
    09:00 +17°C° 0 mm 2 mps 735 mmHg 54%
    10:00 +19°C° 0 mm 2 mps 736 mmHg 50%
    11:00 +20°C° 0 mm 3 mps 735 mmHg 51%
    12:00 +20°C° 0 mm 4 mps 735 mmHg 52%
    13:00 +20°C° 0 mm 5 mps 735 mmHg 52%
    14:00 +19°C° 0.2 mm 5 mps 735 mmHg 61%
    15:00 +17°C° 0.2 mm 4 mps 734 mmHg 70%
    16:00 +15°C° 0.2 mm 4 mps 734 mmHg 79%
    17:00 +14°C° 1.3 mm 4 mps 734 mmHg 82%
    18:00 +13°C° 1.3 mm 4 mps 734 mmHg 85%
    19:00 +12°C° 1.3 mm 4 mps 734 mmHg 88%
    20:00 +12°C° 0.8 mm 4 mps 734 mmHg 88%
    21:00 +12°C° 0.8 mm 4 mps 735 mmHg 88%
    22:00 +11°C° 0.8 mm 4 mps 735 mmHg 88%
    23:00 +11°C° 0.5 mm 4 mps 734 mmHg 88%

    Day after tomorrow, 22 October, Monday

    Time Temperature Precipitation Wind Pressure Humidity
    00:00 +10°C° 0.5 mm 4 mps 734 mmHg 88%
    01:00 +10°C° 0.5 mm 3 mps 734 mmHg 89%
    02:00 +9°C° 0.1 mm 3 mps 734 mmHg 88%
    03:00 +9°C° 0.1 mm 3 mps 733 mmHg 87%
    04:00 +8°C° 0.1 mm 4 mps 733 mmHg 86%
    05:00 +8°C° 0.3 mm 4 mps 733 mmHg 85%
    06:00 +8°C° 0.3 mm 4 mps 733 mmHg 85%
    07:00 +8°C° 0.3 mm 4 mps 733 mmHg 85%
    08:00 +8°C° 0.4 mm 4 mps 733 mmHg 82%
    09:00 +10°C° 0.4 mm 4 mps 733 mmHg 78%
    10:00 +11°C° 0.4 mm 4 mps 733 mmHg 75%
    11:00 +12°C° 1 mm 4 mps 733 mmHg 74%
    12:00 +12°C° 1 mm 4 mps 732 mmHg 74%
    13:00 +12°C° 1 mm 4 mps 732 mmHg 74%
    14:00 +12°C° 1.5 mm 4 mps 732 mmHg 78%
    15:00 +11°C° 1.5 mm 4 mps 732 mmHg 82%
    16:00 +11°C° 1.5 mm 4 mps 732 mmHg 86%
    17:00 +11°C° 1.1 mm 4 mps 732 mmHg 87%
    18:00 +11°C° 1.1 mm 4 mps 732 mmHg 88%
    19:00 +11°C° 1.1 mm 4 mps 732 mmHg 88%
    20:00 +11°C° 1.8 mm 4 mps 733 mmHg 89%
    21:00 +12°C° 1.8 mm 5 mps 733 mmHg 90%
    22:00 +13°C° 1.8 mm 5 mps 733 mmHg 90%
    23:00 +12°C° 0.7 mm 4 mps 733 mmHg 90%

    23 October, Tuesday

    Time Temperature Precipitation Wind Pressure Humidity
    00:00 +12°C° 0.7 mm 4 mps 734 mmHg 89%
    01:00 +12°C° 0.7 mm 4 mps 734 mmHg 89%
    02:00 +12°C° 0.1 mm 4 mps 734 mmHg 89%
    03:00 +12°C° 0.1 mm 5 mps 733 mmHg 89%
    04:00 +12°C° 0.1 mm 5 mps 733 mmHg 89%
    05:00 +12°C° 0.1 mm 5 mps 733 mmHg 89%
    06:00 +12°C° 0.1 mm 5 mps 734 mmHg 89%
    07:00 +12°C° 0.1 mm 5 mps 734 mmHg 89%
    08:00 +12°C° 0.1 mm 5 mps 734 mmHg 85%
    09:00 +13°C° 0.1 mm 5 mps 734 mmHg 81%
    10:00 +14°C° 0.1 mm 5 mps 735 mmHg 77%
    11:00 +15°C° 0 mm 5 mps 735 mmHg 74%
    12:00 +15°C° 0 mm 5 mps 734 mmHg 71%
    13:00 +16°C° 0 mm 5 mps 734 mmHg 68%
    14:00 +15°C° 0 mm 5 mps 734 mmHg 69%
    15:00 +15°C° 0 mm 5 mps 734 mmHg 69%
    16:00 +15°C° 0 mm 5 mps 734 mmHg 69%
    17:00 +13°C° 0 mm 4 mps 734 mmHg 74%
    18:00 +12°C° 0 mm 4 mps 734 mmHg 79%
    19:00 +11°C° 0 mm 4 mps 734 mmHg 84%
    20:00 +11°C° 0 mm 4 mps 735 mmHg 85%
    21:00 +10°C° 0 mm 3 mps 735 mmHg 86%
    22:00 +10°C° 0 mm 3 mps 735 mmHg 86%
    23:00 +10°C° 0 mm 3 mps 735 mmHg 85%

    24 October, Wednesday

    Time Temperature Precipitation Wind Pressure Humidity
    00:00 +10°C° 0 mm 3 mps 734 mmHg 84%
    01:00 +10°C° 0 mm 3 mps 734 mmHg 83%
    02:00 +10°C° 0 mm 3 mps 734 mmHg 81%
    03:00 +10°C° 0 mm 3 mps 734 mmHg 78%
    04:00 +10°C° 0 mm 3 mps 734 mmHg 76%
    05:00 +10°C° 0 mm 3 mps 734 mmHg 72%
    06:00 +10°C° 0 mm 3 mps 734 mmHg 67%
    07:00 +11°C° 0 mm 3 mps 734 mmHg 63%
    08:00 +13°C° 0 mm 3 mps 734 mmHg 56%
    09:00 +17°C° 0 mm 2 mps 734 mmHg 48%
    10:00 +20°C° 0 mm 2 mps 734 mmHg 41%
    11:00 +20°C° 0 mm 2 mps 734 mmHg 39%
    12:00 +22°C° 0 mm 1 mps 734 mmHg 37%
    13:00 +23°C° 0 mm 1 mps 733 mmHg 36%
    14:00 +23°C° 0 mm 2 mps 733 mmHg 40%
    15:00 +21°C° 0 mm 2 mps 733 mmHg 44%
    16:00 +21°C° 0 mm 2 mps 733 mmHg 49%
    17:00 +19°C° 0 mm 2 mps 733 mmHg 52%
    18:00 +18°C° 0 mm 1 mps 733 mmHg 54%
    19:00 +16°C° 0 mm 1 mps 733 mmHg 57%
    20:00 +15°C° 0 mm 1 mps 733 mmHg 56%
    21:00 +15°C° 0 mm 2 mps 733 mmHg 54%
    22:00 +15°C° 0 mm 2 mps 734 mmHg 53%
    23:00 +15°C° 0 mm 2 mps 734 mmHg 52%

    25 October, Thursday

    Time Temperature Precipitation Wind Pressure Humidity
    00:00 +15°C° 0 mm 2 mps 734 mmHg 51%
    01:00 +15°C° 0 mm 2 mps 734 mmHg 51%
    02:00 +15°C° 0 mm 2 mps 734 mmHg 50%
    03:00 +15°C° 0 mm 2 mps 734 mmHg 50%
    04:00 +15°C° 0 mm 2 mps 734 mmHg 50%
    05:00 +15°C° 0 mm 2 mps 734 mmHg 51%
    06:00 +15°C° 0 mm 2 mps 735 mmHg 52%
    07:00 +15°C° 0 mm 2 mps 735 mmHg 52%
    08:00 +17°C° 0 mm 2 mps 735 mmHg 48%
    09:00 +20°C° 0 mm 1 mps 736 mmHg 44%
    10:00 +23°C° 0 mm 1 mps 736 mmHg 39%
    11:00 +23°C° 0 mm 2 mps 736 mmHg 39%
    12:00 +24°C° 0 mm 2 mps 736 mmHg 38%
    13:00 +24°C° 0 mm 3 mps 736 mmHg 38%
    14:00 +24°C° 0 mm 3 mps 736 mmHg 42%
    15:00 +22°C° 0 mm 3 mps 736 mmHg 46%
    16:00 +22°C° 0 mm 3 mps 735 mmHg 50%
    17:00 +20°C° 0 mm 3 mps 735 mmHg 53%
    18:00 +18°C° 0 mm 3 mps 735 mmHg 55%
    19:00 +16°C° 0 mm 3 mps 735 mmHg 58%
    20:00 +16°C° 0 mm 3 mps 735 mmHg 57%
    21:00 +16°C° 0 mm 3 mps 735 mmHg 57%
    22:00 +14°C° 0 mm 3 mps 735 mmHg 56%
    23:00 +14°C° 0 mm 3 mps 735 mmHg 57%
    Show more